ONEWEB-0095 (45436 NORAD) Tracking and Keplerian Element Data

This shows tracking and keplerian element data for the satellite.

Feedback or suggestion? Click here.




ElementValue
Catalog45436
NameONEWEB-0095
Epoch Orbit89
Epoch Day87.56678423
Epoch Year2020
RAAN136.8346
Inclination87.397
Eccentricity0.002092
Argument of Perigee286.9027
Mean Anonmoly72.9933
Mean Motion15.36915345
Decay Rate2.128E-05
L11 45436U 20020N 20087.56678423 .00002128 00000-0 57409-4 0 9996
L22 45436 87.3970 136.8346 0020920 286.9027 72.9933 15.36915345 898

Live tracking and technical data element details for ONEWEB-0095 (NORAD 45436). ONEWEB-0095 can be tracked NOW for your location showing map with azimuth and elevation plus other details from your city location.

Track the satellite on the map from your city or location and see movement details for azimuth, elevation, latitude, longitude, range, height, and movement on the map or in text.







IsCatalogInMostPopularTable: catalog: 45436, numindb: -1

Insert: records affected: 1


GetName: 45436 ONEWEB-0095

Hit Count: inserted at: Tue, 31 Mar 2020 12:38:48 GMT